Year,Month,Day,Hour,Minute,Value (Times are PST for temperature in C)
2017,08,16,00,00,13.40
2017,08,16,00,01,13.40
2017,08,16,00,02,13.30
2017,08,16,00,03,13.30
2017,08,16,00,04,13.30
2017,08,16,00,05,13.30
2017,08,16,00,06,13.30
2017,08,16,00,07,13.20
2017,08,16,00,08,13.20
2017,08,16,00,09,13.10
2017,08,16,00,10,13.10
2017,08,16,00,11,13.10
2017,08,16,00,12,13.10
2017,08,16,00,13,13.00
2017,08,16,00,14,13.00
2017,08,16,00,15,13.00
2017,08,16,00,16,13.00
2017,08,16,00,17,13.00
2017,08,16,00,18,13.00
2017,08,16,00,19,13.00
2017,08,16,00,20,12.90
2017,08,16,00,21,12.90
2017,08,16,00,22,12.90
2017,08,16,00,23,12.90
2017,08,16,00,24,12.90
2017,08,16,00,25,12.90
2017,08,16,00,26,12.90
2017,08,16,00,27,13.00
2017,08,16,00,28,13.00
2017,08,16,00,29,13.00
2017,08,16,00,30,13.00
2017,08,16,00,31,13.00
2017,08,16,00,32,13.00
2017,08,16,00,33,13.00
2017,08,16,00,34,13.00
2017,08,16,00,35,13.00
2017,08,16,00,36,13.00
2017,08,16,00,37,13.00
2017,08,16,00,38,13.00
2017,08,16,00,39,12.90
2017,08,16,00,40,12.90
2017,08,16,00,41,12.90
2017,08,16,00,42,12.90
2017,08,16,00,43,12.90
2017,08,16,00,44,12.90
2017,08,16,00,45,12.90
2017,08,16,00,46,12.90
2017,08,16,00,47,12.90
2017,08,16,00,48,12.90
2017,08,16,00,49,12.90
2017,08,16,00,50,12.90
2017,08,16,00,51,12.80
2017,08,16,00,52,12.80
2017,08,16,00,53,12.80
2017,08,16,00,54,12.80
2017,08,16,00,55,12.70
2017,08,16,00,56,12.70
2017,08,16,00,57,12.60
2017,08,16,00,58,12.60
2017,08,16,00,59,12.60
2017,08,16,01,00,12.60
2017,08,16,01,01,12.60
2017,08,16,01,02,12.50
2017,08,16,01,03,12.50
2017,08,16,01,04,12.40
2017,08,16,01,05,12.40
2017,08,16,01,06,12.40
2017,08,16,01,07,12.40
2017,08,16,01,08,12.30
2017,08,16,01,09,12.30
2017,08,16,01,10,12.30
2017,08,16,01,11,12.30
2017,08,16,01,12,12.30
2017,08,16,01,13,12.30
2017,08,16,01,14,12.30
2017,08,16,01,15,12.30
2017,08,16,01,16,12.30
2017,08,16,01,17,12.30
2017,08,16,01,18,12.30
2017,08,16,01,19,12.30
2017,08,16,01,20,12.30
2017,08,16,01,21,12.30
2017,08,16,01,22,12.30
2017,08,16,01,23,12.30
2017,08,16,01,24,12.30
2017,08,16,01,25,12.30
2017,08,16,01,26,12.20
2017,08,16,01,27,12.20
2017,08,16,01,28,12.20
2017,08,16,01,29,12.20
2017,08,16,01,30,12.20
2017,08,16,01,31,12.20
2017,08,16,01,32,12.20
2017,08,16,01,33,12.20
2017,08,16,01,34,12.20
2017,08,16,01,35,12.20
2017,08,16,01,36,12.20
2017,08,16,01,37,12.10
2017,08,16,01,38,12.10
2017,08,16,01,39,12.10
2017,08,16,01,40,12.10
2017,08,16,01,41,12.10
2017,08,16,01,42,12.00
2017,08,16,01,43,12.00
2017,08,16,01,44,12.00
2017,08,16,01,45,12.00
2017,08,16,01,46,11.90
2017,08,16,01,47,11.90
2017,08,16,01,48,11.90
2017,08,16,01,49,11.90
2017,08,16,01,50,11.90
2017,08,16,01,51,11.90
2017,08,16,01,52,11.90
2017,08,16,01,53,11.90
2017,08,16,01,54,11.90
2017,08,16,01,55,11.90
2017,08,16,01,56,11.90
2017,08,16,01,57,11.90
2017,08,16,01,58,11.90
2017,08,16,01,59,11.90
2017,08,16,02,00,11.90
2017,08,16,02,01,11.80
2017,08,16,02,02,11.80
2017,08,16,02,03,11.80
2017,08,16,02,04,11.80
2017,08,16,02,05,11.80
2017,08,16,02,06,11.80
2017,08,16,02,07,11.80
2017,08,16,02,08,11.80
2017,08,16,02,09,11.80
2017,08,16,02,10,11.80
2017,08,16,02,11,11.90
2017,08,16,02,12,11.90
2017,08,16,02,13,11.90
2017,08,16,02,14,11.90
2017,08,16,02,15,11.90
2017,08,16,02,16,12.00
2017,08,16,02,17,12.00
2017,08,16,02,18,12.00
2017,08,16,02,19,12.00
2017,08,16,02,20,12.00
2017,08,16,02,21,12.10
2017,08,16,02,22,12.10
2017,08,16,02,23,12.10
2017,08,16,02,24,12.10
2017,08,16,02,25,12.10
2017,08,16,02,26,12.10
2017,08,16,02,27,12.10
2017,08,16,02,28,12.10
2017,08,16,02,29,12.00
2017,08,16,02,30,12.00
2017,08,16,02,31,11.90
2017,08,16,02,32,11.90
2017,08,16,02,33,11.90
2017,08,16,02,34,11.90
2017,08,16,02,35,11.90
2017,08,16,02,36,11.80
2017,08,16,02,37,11.80
2017,08,16,02,38,11.80
2017,08,16,02,39,11.80
2017,08,16,02,40,11.80
2017,08,16,02,41,11.80
2017,08,16,02,42,11.80
2017,08,16,02,43,11.80
2017,08,16,02,44,11.80
2017,08,16,02,45,11.90
2017,08,16,02,46,11.90
2017,08,16,02,47,11.90
2017,08,16,02,48,11.90
2017,08,16,02,49,12.00
2017,08,16,02,50,12.00
2017,08,16,02,51,12.00
2017,08,16,02,52,12.00
2017,08,16,02,53,11.90
2017,08,16,02,54,11.90
2017,08,16,02,55,11.90
2017,08,16,02,56,11.90
2017,08,16,02,57,11.90
2017,08,16,02,58,12.00
2017,08,16,02,59,12.00
2017,08,16,03,00,12.10
2017,08,16,03,01,12.10
2017,08,16,03,02,12.10
2017,08,16,03,03,12.10
2017,08,16,03,04,12.10
2017,08,16,03,05,12.10
2017,08,16,03,06,12.00
2017,08,16,03,07,11.90
2017,08,16,03,08,11.90
2017,08,16,03,09,11.90
2017,08,16,03,10,11.90
2017,08,16,03,11,11.90
2017,08,16,03,12,11.90
2017,08,16,03,13,12.00
2017,08,16,03,14,12.00
2017,08,16,03,15,12.00
2017,08,16,03,16,12.00
2017,08,16,03,17,12.10
2017,08,16,03,18,12.10
2017,08,16,03,19,12.00
2017,08,16,03,20,12.00
2017,08,16,03,21,12.10
2017,08,16,03,22,12.10
2017,08,16,03,23,12.10
2017,08,16,03,24,12.10
2017,08,16,03,25,12.10
2017,08,16,03,26,12.10
2017,08,16,03,27,12.10
2017,08,16,03,28,12.10
2017,08,16,03,29,12.10
2017,08,16,03,30,12.10
2017,08,16,03,31,12.10
2017,08,16,03,32,12.10
2017,08,16,03,33,12.00
2017,08,16,03,34,12.00
2017,08,16,03,35,12.00
2017,08,16,03,36,12.00
2017,08,16,03,37,12.00
2017,08,16,03,38,12.00
2017,08,16,03,39,12.00
2017,08,16,03,40,12.00
2017,08,16,03,41,12.00
2017,08,16,03,42,12.00
2017,08,16,03,43,12.00
2017,08,16,03,44,12.00
2017,08,16,03,45,12.00
2017,08,16,03,46,12.00
2017,08,16,03,47,11.90
2017,08,16,03,48,11.90
2017,08,16,03,49,11.90
2017,08,16,03,50,11.90
2017,08,16,03,51,11.90
2017,08,16,03,52,11.90
2017,08,16,03,53,11.80
2017,08,16,03,54,11.80
2017,08,16,03,55,11.80
2017,08,16,03,56,11.80
2017,08,16,03,57,11.80
2017,08,16,03,58,11.80
2017,08,16,03,59,11.80
2017,08,16,04,00,11.80
2017,08,16,04,01,11.80
2017,08,16,04,02,11.80
2017,08,16,04,03,11.80
2017,08,16,04,04,11.80
2017,08,16,04,05,11.80
2017,08,16,04,06,11.80
2017,08,16,04,07,11.80
2017,08,16,04,08,11.80
2017,08,16,04,09,11.80
2017,08,16,04,10,11.80
2017,08,16,04,11,11.80
2017,08,16,04,12,11.80
2017,08,16,04,13,11.80
2017,08,16,04,14,11.80
2017,08,16,04,15,11.80
2017,08,16,04,16,11.80
2017,08,16,04,17,11.80
2017,08,16,04,18,11.80
2017,08,16,04,19,11.80
2017,08,16,04,20,11.80
2017,08,16,04,21,11.70
2017,08,16,04,22,11.70
2017,08,16,04,23,11.80
2017,08,16,04,24,11.80
2017,08,16,04,25,11.80
2017,08,16,04,26,11.70
2017,08,16,04,27,11.70
2017,08,16,04,28,11.70
2017,08,16,04,29,11.70
2017,08,16,04,30,11.70
2017,08,16,04,31,11.70
2017,08,16,04,32,11.70
2017,08,16,04,33,11.70
2017,08,16,04,34,11.70
2017,08,16,04,35,11.70
2017,08,16,04,36,11.70
2017,08,16,04,37,11.70
2017,08,16,04,38,11.70
2017,08,16,04,39,11.70
2017,08,16,04,40,11.70
2017,08,16,04,41,11.70
2017,08,16,04,42,11.70
2017,08,16,04,43,11.70
2017,08,16,04,44,11.70
2017,08,16,04,45,11.70
2017,08,16,04,46,11.70
2017,08,16,04,47,11.70
2017,08,16,04,48,11.70
2017,08,16,04,49,11.70
2017,08,16,04,50,11.70
2017,08,16,04,51,11.70
2017,08,16,04,52,11.70
2017,08,16,04,53,11.70
2017,08,16,04,54,11.70
2017,08,16,04,55,11.70
2017,08,16,04,56,11.70
2017,08,16,04,57,11.70
2017,08,16,04,58,11.70
2017,08,16,04,59,11.70
2017,08,16,05,00,11.70
2017,08,16,05,01,11.70
2017,08,16,05,02,11.70
2017,08,16,05,03,11.70
2017,08,16,05,04,11.70
2017,08,16,05,05,11.70
2017,08,16,05,06,11.70
2017,08,16,05,07,11.70
2017,08,16,05,08,11.70
2017,08,16,05,09,11.70
2017,08,16,05,10,11.70
2017,08,16,05,11,11.70
2017,08,16,05,12,11.70
2017,08,16,05,13,11.70
2017,08,16,05,14,11.70
2017,08,16,05,15,11.70
2017,08,16,05,16,11.80
2017,08,16,05,17,11.80
2017,08,16,05,18,11.80
2017,08,16,05,19,11.80
2017,08,16,05,20,11.80
2017,08,16,05,21,11.90
2017,08,16,05,22,11.90
2017,08,16,05,23,11.90
2017,08,16,05,24,11.90
2017,08,16,05,25,11.90
2017,08,16,05,26,11.90
2017,08,16,05,27,11.90
2017,08,16,05,28,12.00
2017,08,16,05,29,12.00
2017,08,16,05,30,12.00
2017,08,16,05,31,12.00
2017,08,16,05,32,12.00
2017,08,16,05,33,12.00
2017,08,16,05,34,12.10
2017,08,16,05,35,12.10
2017,08,16,05,36,12.10
2017,08,16,05,37,12.10
2017,08,16,05,38,12.10
2017,08,16,05,39,12.10
2017,08,16,05,40,12.10
2017,08,16,05,41,12.10
2017,08,16,05,42,12.10
2017,08,16,05,43,12.10
2017,08,16,05,44,12.20
2017,08,16,05,45,12.20
2017,08,16,05,46,12.20
2017,08,16,05,47,12.20
2017,08,16,05,48,12.20
2017,08,16,05,49,12.20
2017,08,16,05,50,12.20
2017,08,16,05,51,12.20
2017,08,16,05,52,12.20
2017,08,16,05,53,12.20
2017,08,16,05,54,12.20
2017,08,16,05,55,12.20
2017,08,16,05,56,12.20
2017,08,16,05,57,12.20
2017,08,16,05,58,12.20
2017,08,16,05,59,12.20
2017,08,16,06,00,12.30
2017,08,16,06,01,12.30
2017,08,16,06,02,12.30
2017,08,16,06,03,12.30
2017,08,16,06,04,12.30
2017,08,16,06,05,12.20
2017,08,16,06,06,12.20
2017,08,16,06,07,12.20
2017,08,16,06,08,12.20
2017,08,16,06,09,12.20
2017,08,16,06,10,12.20
2017,08,16,06,11,12.10
2017,08,16,06,12,12.10
2017,08,16,06,13,12.10
2017,08,16,06,14,12.10
2017,08,16,06,15,12.10
2017,08,16,06,16,12.00
2017,08,16,06,17,12.00
2017,08,16,06,18,12.00
2017,08,16,06,19,11.90
2017,08,16,06,20,11.90
2017,08,16,06,21,11.90
2017,08,16,06,22,11.90
2017,08,16,06,23,11.90
2017,08,16,06,24,11.90
2017,08,16,06,25,11.90
2017,08,16,06,26,11.90
2017,08,16,06,27,11.90
2017,08,16,06,28,11.90
2017,08,16,06,29,11.90
2017,08,16,06,30,11.90
2017,08,16,06,31,11.90
2017,08,16,06,32,11.90
2017,08,16,06,33,11.90
2017,08,16,06,34,11.90
2017,08,16,06,35,11.90
2017,08,16,06,36,11.90
2017,08,16,06,37,11.90
2017,08,16,06,38,11.90
2017,08,16,06,39,11.90
2017,08,16,06,40,11.90
2017,08,16,06,41,11.90
2017,08,16,06,42,11.90
2017,08,16,06,43,11.90
2017,08,16,06,44,11.90
2017,08,16,06,45,12.00
2017,08,16,06,46,12.00
2017,08,16,06,47,12.10
2017,08,16,06,48,12.10
2017,08,16,06,49,12.10
2017,08,16,06,50,12.10
2017,08,16,06,51,12.20
2017,08,16,06,52,12.10
2017,08,16,06,53,12.10
2017,08,16,06,54,12.10
2017,08,16,06,55,12.10
2017,08,16,06,56,12.10
2017,08,16,06,57,12.10
2017,08,16,06,58,12.10
2017,08,16,06,59,12.00
2017,08,16,07,00,12.00
2017,08,16,07,01,12.00
2017,08,16,07,02,12.00
2017,08,16,07,03,12.00
2017,08,16,07,04,12.00
2017,08,16,07,05,12.00
2017,08,16,07,06,12.00
2017,08,16,07,07,12.00
2017,08,16,07,08,12.00
2017,08,16,07,09,12.00
2017,08,16,07,10,12.00
2017,08,16,07,11,12.00
2017,08,16,07,12,12.00
2017,08,16,07,13,12.10
2017,08,16,07,14,12.10
2017,08,16,07,15,12.10
2017,08,16,07,16,12.10
2017,08,16,07,17,12.20
2017,08,16,07,18,12.20
2017,08,16,07,19,12.20
2017,08,16,07,20,12.20
2017,08,16,07,21,12.20
2017,08,16,07,22,12.20
2017,08,16,07,23,12.30
2017,08,16,07,24,12.30
2017,08,16,07,25,12.30
2017,08,16,07,26,12.30
2017,08,16,07,27,12.40
2017,08,16,07,28,12.40
2017,08,16,07,29,12.40
2017,08,16,07,30,12.40
2017,08,16,07,31,12.50
2017,08,16,07,32,12.50
2017,08,16,07,33,12.60
2017,08,16,07,34,12.70
2017,08,16,07,35,12.80
2017,08,16,07,36,12.80
2017,08,16,07,37,12.90
2017,08,16,07,38,12.90
2017,08,16,07,39,13.00
2017,08,16,07,40,13.10
2017,08,16,07,41,13.10
2017,08,16,07,42,13.20
2017,08,16,07,43,13.30
2017,08,16,07,44,13.30
2017,08,16,07,45,13.40
2017,08,16,07,46,13.40
2017,08,16,07,47,13.40
2017,08,16,07,48,13.50
2017,08,16,07,49,13.50
2017,08,16,07,50,13.60
2017,08,16,07,51,13.60
2017,08,16,07,52,13.60
2017,08,16,07,53,13.70
2017,08,16,07,54,13.70
2017,08,16,07,55,13.70
2017,08,16,07,56,13.70
2017,08,16,07,57,13.70
2017,08,16,07,58,13.70
2017,08,16,07,59,13.70
2017,08,16,08,00,13.70
2017,08,16,08,01,13.70
2017,08,16,08,02,13.70
2017,08,16,08,03,13.80
2017,08,16,08,04,13.80
2017,08,16,08,05,13.90
2017,08,16,08,06,14.00
2017,08,16,08,07,14.20
2017,08,16,08,08,14.30
2017,08,16,08,09,14.50
2017,08,16,08,10,14.60
2017,08,16,08,11,14.80
2017,08,16,08,12,14.90
2017,08,16,08,13,14.90
2017,08,16,08,14,15.00
2017,08,16,08,15,15.10
2017,08,16,08,16,15.10
2017,08,16,08,17,15.20
2017,08,16,08,18,15.30
2017,08,16,08,19,15.30
2017,08,16,08,20,15.40
2017,08,16,08,21,15.40
2017,08,16,08,22,15.40
2017,08,16,08,23,15.50
2017,08,16,08,24,15.50
2017,08,16,08,25,15.60
2017,08,16,08,26,15.60
2017,08,16,08,27,15.70
2017,08,16,08,28,15.70
2017,08,16,08,29,15.70
2017,08,16,08,30,15.80
2017,08,16,08,31,15.90
2017,08,16,08,32,15.90
2017,08,16,08,33,16.00
2017,08,16,08,34,16.00
2017,08,16,08,35,16.10
2017,08,16,08,36,16.10
2017,08,16,08,37,16.20
2017,08,16,08,38,16.20
2017,08,16,08,39,16.20
2017,08,16,08,40,16.30
2017,08,16,08,41,16.30
2017,08,16,08,42,16.40
2017,08,16,08,43,16.40
2017,08,16,08,44,16.40
2017,08,16,08,45,16.50
2017,08,16,08,46,16.50
2017,08,16,08,47,16.50
2017,08,16,08,48,16.60
2017,08,16,08,49,16.60
2017,08,16,08,50,16.60
2017,08,16,08,51,16.70
2017,08,16,08,52,16.80
2017,08,16,08,53,16.80
2017,08,16,08,54,16.80
2017,08,16,08,55,16.80
2017,08,16,08,56,16.90
2017,08,16,08,57,16.90
2017,08,16,08,58,16.90
2017,08,16,08,59,16.90
2017,08,16,09,00,16.90
2017,08,16,09,01,16.90
2017,08,16,09,02,16.90
2017,08,16,09,03,16.90
2017,08,16,09,04,16.80
2017,08,16,09,05,16.80
2017,08,16,09,06,16.80
2017,08,16,09,07,16.80
2017,08,16,09,08,16.70
2017,08,16,09,09,16.70
2017,08,16,09,10,16.80
2017,08,16,09,11,16.80
2017,08,16,09,12,16.80
2017,08,16,09,13,16.80
2017,08,16,09,14,16.90
2017,08,16,09,15,16.90
2017,08,16,09,16,16.90
2017,08,16,09,17,17.00
2017,08,16,09,18,17.10
2017,08,16,09,19,17.20
2017,08,16,09,20,17.20
2017,08,16,09,21,17.20
2017,08,16,09,22,17.20
2017,08,16,09,23,17.20
2017,08,16,09,24,17.10
2017,08,16,09,25,17.10
2017,08,16,09,26,17.10
2017,08,16,09,27,17.10
2017,08,16,09,28,17.10
2017,08,16,09,29,17.10
2017,08,16,09,30,17.00
2017,08,16,09,31,17.00
2017,08,16,09,32,17.00
2017,08,16,09,33,16.90
2017,08,16,09,34,16.90
2017,08,16,09,35,16.90
2017,08,16,09,36,16.90
2017,08,16,09,37,16.90
2017,08,16,09,38,16.80
2017,08,16,09,39,16.80
2017,08,16,09,40,16.80
2017,08,16,09,41,16.80
2017,08,16,09,42,16.80
2017,08,16,09,43,16.70
2017,08,16,09,44,16.70
2017,08,16,09,45,16.70
2017,08,16,09,46,16.80
2017,08,16,09,47,16.80
2017,08,16,09,48,16.80
2017,08,16,09,49,16.80
2017,08,16,09,50,16.90
2017,08,16,09,51,16.90
2017,08,16,09,52,16.90
2017,08,16,09,53,16.90
2017,08,16,09,54,16.90
2017,08,16,09,55,17.00
2017,08,16,09,56,17.00
2017,08,16,09,57,17.00
2017,08,16,09,58,17.00
2017,08,16,09,59,17.00
2017,08,16,10,00,17.10
2017,08,16,10,01,17.10
2017,08,16,10,02,17.10
2017,08,16,10,03,17.10
2017,08,16,10,04,17.10
2017,08,16,10,05,17.10
2017,08,16,10,06,17.10
2017,08,16,10,07,17.20
2017,08,16,10,08,17.30
2017,08,16,10,09,17.30
2017,08,16,10,10,17.40
2017,08,16,10,11,17.50
2017,08,16,10,12,17.50
2017,08,16,10,13,17.60
2017,08,16,10,14,17.70
2017,08,16,10,15,17.70
2017,08,16,10,16,17.80
2017,08,16,10,17,17.90
2017,08,16,10,18,18.00
2017,08,16,10,19,18.10
2017,08,16,10,20,18.10
2017,08,16,10,21,18.20
2017,08,16,10,22,18.20
2017,08,16,10,23,18.10
2017,08,16,10,24,18.10
2017,08,16,10,25,18.10
2017,08,16,10,26,18.10
2017,08,16,10,27,18.10
2017,08,16,10,28,18.10
2017,08,16,10,29,18.10
2017,08,16,10,30,18.10
2017,08,16,10,31,18.00
2017,08,16,10,32,18.00
2017,08,16,10,33,17.90
2017,08,16,10,34,17.80
2017,08,16,10,35,17.80
2017,08,16,10,36,17.70
2017,08,16,10,37,17.70
2017,08,16,10,38,17.60
2017,08,16,10,39,17.60
2017,08,16,10,40,17.60
2017,08,16,10,41,17.60
2017,08,16,10,42,17.60
2017,08,16,10,43,17.60
2017,08,16,10,44,17.60
2017,08,16,10,45,17.60
2017,08,16,10,46,17.60
2017,08,16,10,47,17.60
2017,08,16,10,48,17.60
2017,08,16,10,49,17.70
2017,08,16,10,50,17.70
2017,08,16,10,51,17.70
2017,08,16,10,52,17.70
2017,08,16,10,53,17.70
2017,08,16,10,54,17.70
2017,08,16,10,55,17.70
2017,08,16,10,56,17.70
2017,08,16,10,57,17.80
2017,08,16,10,58,17.80
2017,08,16,10,59,17.90
2017,08,16,11,00,17.90
2017,08,16,11,01,18.00
2017,08,16,11,02,18.10
2017,08,16,11,03,18.10
2017,08,16,11,04,18.10
2017,08,16,11,05,18.20
2017,08,16,11,06,18.20
2017,08,16,11,07,18.20
2017,08,16,11,08,18.30
2017,08,16,11,09,18.30
2017,08,16,11,10,18.40
2017,08,16,11,11,18.50
2017,08,16,11,12,18.50
2017,08,16,11,13,18.50
2017,08,16,11,14,18.60
2017,08,16,11,15,18.60
2017,08,16,11,16,18.60
2017,08,16,11,17,18.70
2017,08,16,11,18,18.60
2017,08,16,11,19,18.60
2017,08,16,11,20,18.60
2017,08,16,11,21,18.70
2017,08,16,11,22,18.70
2017,08,16,11,23,18.80
2017,08,16,11,24,18.90
2017,08,16,11,25,18.90
2017,08,16,11,26,19.00
2017,08,16,11,27,19.10
2017,08,16,11,28,19.00
2017,08,16,11,29,18.90
2017,08,16,11,30,18.90
2017,08,16,11,31,18.80
2017,08,16,11,32,18.70
2017,08,16,11,33,18.70
2017,08,16,11,34,18.60
2017,08,16,11,35,18.50
2017,08,16,11,36,18.50
2017,08,16,11,37,18.40
2017,08,16,11,38,18.40
2017,08,16,11,39,18.30
2017,08,16,11,40,18.30
2017,08,16,11,41,18.30
2017,08,16,11,42,18.40
2017,08,16,11,43,18.40
2017,08,16,11,44,18.50
2017,08,16,11,45,18.50
2017,08,16,11,46,18.60
2017,08,16,11,47,18.70
2017,08,16,11,48,18.70
2017,08,16,11,49,18.80
2017,08,16,11,50,18.90
2017,08,16,11,51,18.90
2017,08,16,11,52,18.90
2017,08,16,11,53,18.90
2017,08,16,11,54,19.00
2017,08,16,11,55,19.00
2017,08,16,11,56,19.10
2017,08,16,11,57,19.20
2017,08,16,11,58,19.30
2017,08,16,11,59,19.40
2017,08,16,12,00,19.40
2017,08,16,12,01,19.50
2017,08,16,12,02,19.60
2017,08,16,12,03,19.60
2017,08,16,12,04,19.70
2017,08,16,12,05,19.70
2017,08,16,12,06,19.70
2017,08,16,12,07,19.70
2017,08,16,12,08,19.70
2017,08,16,12,09,19.70
2017,08,16,12,10,19.80
2017,08,16,12,11,19.80
2017,08,16,12,12,19.80
2017,08,16,12,13,19.80
2017,08,16,12,14,19.90
2017,08,16,12,15,19.90
2017,08,16,12,16,19.90
2017,08,16,12,17,19.90
2017,08,16,12,18,19.90
2017,08,16,12,19,19.80
2017,08,16,12,20,19.80
2017,08,16,12,21,19.80
2017,08,16,12,22,19.80
2017,08,16,12,23,19.80
2017,08,16,12,24,19.70
2017,08,16,12,25,19.70
2017,08,16,12,26,19.60
2017,08,16,12,27,19.60
2017,08,16,12,28,19.70
2017,08,16,12,29,19.70
2017,08,16,12,30,19.70
2017,08,16,12,31,19.70
2017,08,16,12,32,19.70
2017,08,16,12,33,19.80
2017,08,16,12,34,19.80
2017,08,16,12,35,19.80
2017,08,16,12,36,19.80
2017,08,16,12,37,19.80
2017,08,16,12,38,19.90
2017,08,16,12,39,19.90
2017,08,16,12,40,19.90
2017,08,16,12,41,20.00
2017,08,16,12,42,20.00
2017,08,16,12,43,20.10
2017,08,16,12,44,20.10
2017,08,16,12,45,20.10
2017,08,16,12,46,20.20
2017,08,16,12,47,20.10
2017,08,16,12,48,20.10
2017,08,16,12,49,20.10
2017,08,16,12,50,20.10
2017,08,16,12,51,20.10
2017,08,16,12,52,20.00
2017,08,16,12,53,20.10
2017,08,16,12,54,20.10
2017,08,16,12,55,20.10
2017,08,16,12,56,20.00
2017,08,16,12,57,20.00
2017,08,16,12,58,20.00
2017,08,16,12,59,20.10
2017,08,16,13,00,20.10
2017,08,16,13,01,20.10
2017,08,16,13,02,20.10
2017,08,16,13,03,20.10
2017,08,16,13,04,20.00
2017,08,16,13,05,20.00
2017,08,16,13,06,19.90
2017,08,16,13,07,19.80
2017,08,16,13,08,19.80
2017,08,16,13,09,19.80
2017,08,16,13,10,19.70
2017,08,16,13,11,19.80
2017,08,16,13,12,19.70
2017,08,16,13,13,19.70
2017,08,16,13,14,19.70
2017,08,16,13,15,19.70
2017,08,16,13,16,19.60
2017,08,16,13,17,19.60
2017,08,16,13,18,19.60
2017,08,16,13,19,19.60
2017,08,16,13,20,19.60
2017,08,16,13,21,19.60
2017,08,16,13,22,19.70
2017,08,16,13,23,19.70
2017,08,16,13,24,19.80
2017,08,16,13,25,19.80
2017,08,16,13,26,19.90
2017,08,16,13,27,19.90
2017,08,16,13,28,19.90
2017,08,16,13,29,19.90
2017,08,16,13,30,19.90
2017,08,16,13,31,19.90
2017,08,16,13,32,19.90
2017,08,16,13,33,19.90
2017,08,16,13,34,19.90
2017,08,16,13,35,20.00
2017,08,16,13,36,20.00
2017,08,16,13,37,20.10
2017,08,16,13,38,20.10
2017,08,16,13,39,20.10
2017,08,16,13,40,20.20
2017,08,16,13,41,20.20
2017,08,16,13,42,20.20
2017,08,16,13,43,20.20
2017,08,16,13,44,20.20
2017,08,16,13,45,20.20
2017,08,16,13,46,20.20
2017,08,16,13,47,20.30
2017,08,16,13,48,20.20
2017,08,16,13,49,20.20
2017,08,16,13,50,20.00
2017,08,16,13,51,19.90
2017,08,16,13,52,19.80
2017,08,16,13,53,19.80
2017,08,16,13,54,19.80
2017,08,16,13,55,19.70
2017,08,16,13,56,19.70
2017,08,16,13,57,19.80
2017,08,16,13,58,19.80
2017,08,16,13,59,19.90
2017,08,16,14,00,20.00
2017,08,16,14,01,20.00
2017,08,16,14,02,20.00
2017,08,16,14,03,20.10
2017,08,16,14,04,20.10
2017,08,16,14,05,20.20
2017,08,16,14,06,20.30
2017,08,16,14,07,20.40
2017,08,16,14,08,20.40
2017,08,16,14,09,20.50
2017,08,16,14,10,20.50
2017,08,16,14,11,20.60
2017,08,16,14,12,20.70
2017,08,16,14,13,20.80
2017,08,16,14,14,20.90
2017,08,16,14,15,21.10
2017,08,16,14,16,21.30
2017,08,16,14,17,21.40
2017,08,16,14,18,21.60
2017,08,16,14,19,21.60
2017,08,16,14,20,21.60
2017,08,16,14,21,21.60
2017,08,16,14,22,21.60
2017,08,16,14,23,21.60
2017,08,16,14,24,21.70
2017,08,16,14,25,21.70
2017,08,16,14,26,21.70
2017,08,16,14,27,21.80
2017,08,16,14,28,21.80
2017,08,16,14,29,21.80
2017,08,16,14,30,21.80
2017,08,16,14,31,21.80
2017,08,16,14,32,21.90
2017,08,16,14,33,21.90
2017,08,16,14,34,22.00
2017,08,16,14,35,22.10
2017,08,16,14,36,22.10
2017,08,16,14,37,22.20
2017,08,16,14,38,22.30
2017,08,16,14,39,22.40
2017,08,16,14,40,22.40
2017,08,16,14,41,22.40
2017,08,16,14,42,22.40
2017,08,16,14,43,22.40
2017,08,16,14,44,22.40
2017,08,16,14,45,22.50
2017,08,16,14,46,22.50
2017,08,16,14,47,22.60
2017,08,16,14,48,22.70
2017,08,16,14,49,22.80
2017,08,16,14,50,22.80
2017,08,16,14,51,22.90
2017,08,16,14,52,23.10
2017,08,16,14,53,23.20
2017,08,16,14,54,23.40
2017,08,16,14,55,23.50
2017,08,16,14,56,23.50
2017,08,16,14,57,23.60
2017,08,16,14,58,23.70
2017,08,16,14,59,23.70
2017,08,16,15,00,23.80
2017,08,16,15,01,23.90
2017,08,16,15,02,23.90
2017,08,16,15,03,23.80
2017,08,16,15,04,23.80
2017,08,16,15,05,23.80
2017,08,16,15,06,23.80
2017,08,16,15,07,23.80
2017,08,16,15,08,23.70
2017,08,16,15,09,23.70
2017,08,16,15,10,23.70
2017,08,16,15,11,23.80
2017,08,16,15,12,23.80
2017,08,16,15,13,23.80
2017,08,16,15,14,23.80
2017,08,16,15,15,23.90
2017,08,16,15,16,24.00
2017,08,16,15,17,24.00
2017,08,16,15,18,24.00
2017,08,16,15,19,24.00
2017,08,16,15,20,24.00
2017,08,16,15,21,24.00
2017,08,16,15,22,24.10
2017,08,16,15,23,24.00
2017,08,16,15,24,23.90
2017,08,16,15,25,23.80
2017,08,16,15,26,23.80
2017,08,16,15,27,23.80
2017,08,16,15,28,23.80
2017,08,16,15,29,23.90
2017,08,16,15,30,24.00
2017,08,16,15,31,24.10
2017,08,16,15,32,24.10
2017,08,16,15,33,24.20
2017,08,16,15,34,24.30
2017,08,16,15,35,24.40
2017,08,16,15,36,24.50
2017,08,16,15,37,24.50
2017,08,16,15,38,24.50
2017,08,16,15,39,24.30
2017,08,16,15,40,24.20
2017,08,16,15,41,24.10
2017,08,16,15,42,24.00
2017,08,16,15,43,23.90
2017,08,16,15,44,23.90
2017,08,16,15,45,23.80
2017,08,16,15,46,23.80
2017,08,16,15,47,23.70
2017,08,16,15,48,23.70
2017,08,16,15,49,23.70
2017,08,16,15,50,23.80
2017,08,16,15,51,23.80
2017,08,16,15,52,23.80
2017,08,16,15,53,23.90
2017,08,16,15,54,23.90
2017,08,16,15,55,24.00
2017,08,16,15,56,24.10
2017,08,16,15,57,24.20
2017,08,16,15,58,24.30
2017,08,16,15,59,24.50
2017,08,16,16,00,24.60
2017,08,16,16,01,24.60
2017,08,16,16,02,24.50
2017,08,16,16,03,24.30
2017,08,16,16,04,24.20
2017,08,16,16,05,24.00
2017,08,16,16,06,23.80
2017,08,16,16,07,23.70
2017,08,16,16,08,23.50
2017,08,16,16,09,23.30
2017,08,16,16,10,23.20
2017,08,16,16,11,23.10
2017,08,16,16,12,23.10
2017,08,16,16,13,23.10
2017,08,16,16,14,23.10
2017,08,16,16,15,23.10
2017,08,16,16,16,23.10
2017,08,16,16,17,23.20
2017,08,16,16,18,23.20
2017,08,16,16,19,23.20
2017,08,16,16,20,23.10
2017,08,16,16,21,23.10
2017,08,16,16,22,23.00
2017,08,16,16,23,22.90
2017,08,16,16,24,22.80
2017,08,16,16,25,22.70
2017,08,16,16,26,22.60
2017,08,16,16,27,22.50
2017,08,16,16,28,22.30
2017,08,16,16,29,22.30
2017,08,16,16,30,22.20
2017,08,16,16,31,22.20
2017,08,16,16,32,22.20
2017,08,16,16,33,22.20
2017,08,16,16,34,22.10
2017,08,16,16,35,22.10
2017,08,16,16,36,22.00
2017,08,16,16,37,21.90
2017,08,16,16,38,21.80
2017,08,16,16,39,21.70
2017,08,16,16,40,21.60
2017,08,16,16,41,21.50
2017,08,16,16,42,21.50
2017,08,16,16,43,21.40
2017,08,16,16,44,21.40
2017,08,16,16,45,21.30
2017,08,16,16,46,21.30
2017,08,16,16,47,21.20
2017,08,16,16,48,21.20
2017,08,16,16,49,21.30
2017,08,16,16,50,21.30
2017,08,16,16,51,21.40
2017,08,16,16,52,21.40
2017,08,16,16,53,21.40
2017,08,16,16,54,21.30
2017,08,16,16,55,21.30
2017,08,16,16,56,21.30
2017,08,16,16,57,21.20
2017,08,16,16,58,21.30
2017,08,16,16,59,21.30
2017,08,16,17,00,21.40
2017,08,16,17,01,21.40
2017,08,16,17,02,21.40
2017,08,16,17,03,21.40
2017,08,16,17,04,21.30
2017,08,16,17,05,21.20
2017,08,16,17,06,21.20
2017,08,16,17,07,21.20
2017,08,16,17,08,21.30
2017,08,16,17,09,21.30
2017,08,16,17,10,21.30
2017,08,16,17,11,21.30
2017,08,16,17,12,21.30
2017,08,16,17,13,21.20
2017,08,16,17,14,21.20
2017,08,16,17,15,21.30
2017,08,16,17,16,21.40
2017,08,16,17,17,21.50
2017,08,16,17,18,21.60
2017,08,16,17,19,21.70